Location: Azul
(36.7830°S, 59.8500°W)
Time: 02:54:42
(UTC-03:00)

ISS - Pass Details

Date: 16 October 2017
Orbit: 400 x 408 km, 51.6° (Epoch: 24 October)

Event Time Altitude Azimuth Distance (km) Brightness Sun altitude
Rises 05:34:42 0° 218° (SW) 2,360 -0.1 -8.3°
Reaches altitude 10° 05:37:26 10° 194° (SSW) 1,492 -0.9 -7.8°
Maximum altitude 05:39:32 15° 155° (SSE) 1,199 -0.8 -7.4°
Drops below altitude 10° 05:41:37 10° 116° (ESE) 1,482 0.7 -7.0°
Sets 05:44:20 0° 92° (E) 2,336 1.9 -6.5°
